Flag for Switzerland Weather past 2 weeks in Montreux, Vaud, Switzerland

Now
60 °F

Cool.


Feels Like: 60 °F
Forecast: 40 / 68 °F
Wind: 2 mph from Southeast

Location: Aigle

Current Time: May 30, 2015 at 7:17:16 AM

Latest Report: May 30, 2015 at 6:00 AM


Visibility: N/A

Pressure: 29.99 "Hg

Humidity: 71%

Dew point: 50 °F

Location of MontreuxLocation

Historic Weather in Montreux — Graph

°F

Montreux temperature yesterday

Maximum temperature yesterday: 74 °F (at 5:00 PM)
Minimum temperature yesterday: 48 °F (at 5:00 AM)
Average temperature yesterday: 63 °F

Past Weeks' High & Low Weather Summary

 TemperatureHumidityPressure
High74 °F (May 29, 5:00 PM)98% (May 26, 2:00 AM)30.30 "Hg (May 26, 2:00 AM)
Low42 °F (May 24, 6:00 AM)24% (May 28, 7:00 PM)29.73 "Hg (May 18, 7:00 PM)
Average56 °F69%30.04 "Hg
* Reported May 15 4:00 AM — May 30 4:00 AM, Montreux, Weather by CustomWeather, © 2015

Note: Actual official high and low records may vary slightly from our data, if they occured in-between our weather recording intervals... More about our weather records

Advertising

Montreux weather history for previous 24 hours

 ConditionsComfort  
Time TempWeatherWind HumidityBarometerVisibility
4:00 AM
Sat, May 30
58 °FCool.1 mph80%29.98 "HgN/A
3:00 AM60 °FCool.5 mph75%29.98 "HgN/A
2:00 AM61 °FCool.5 mph74%29.97 "HgN/A
1:00 AM59 °FCool.6 mph74%29.96 "HgN/A
12:00 AM63 °FMild.3 mph65%29.93 "HgN/A
11:00 PM
Fri, May 29
64 °FMild.8 mph59%29.91 "HgN/A
10:00 PM65 °FMild.5 mph56%29.86 "HgN/A
9:00 PM67 °FMild.5 mph50%29.84 "HgN/A
8:00 PM71 °FScattered clouds.6 mph44%29.82 "Hg19 mi
7:00 PM73 °FMild.8 mph36%29.80 "HgN/A
6:00 PM74 °FMild.8 mph36%29.80 "HgN/A
5:00 PM74 °FPassing clouds.7 mph38%29.80 "Hg25 mi
4:00 PM74 °FMild.10 mph36%29.82 "HgN/A
3:00 PM72 °FMild.12 mph37%29.83 "HgN/A
2:00 PM71 °FMild.8 mph43%29.86 "HgN/A
1:00 PM69 °FMild.8 mph45%29.88 "HgN/A
12:00 PM66 °FMild.8 mph57%29.91 "HgN/A
11:00 AM65 °FPassing clouds.7 mph60%29.92 "Hg25 mi
10:00 AM64 °FMild.1 mph44%29.94 "HgN/A
9:00 AM61 °FRefreshingly cool.3 mph59%29.96 "HgN/A
8:00 AM56 °FSunny.2 mph74%29.97 "Hg22 mi
7:00 AM50 °FCool.2 mph76%29.99 "HgN/A
Weather by CustomWeather, © 2015

See weather overviewHow to use our weather pages